Regional Weather Roundup
Issued by NWS Grand Forks, ND

Home | Current Version | Previous Version | Graphics & Text | Print | Product List | Glossary On
Versions: 1 2 3 4 5 6 7 8 9 10 11 12 13 14 15 16 17 18 19 20 21 22 23 24 25 26 27 28 29 30 31 32 33 34 35 36 37 38 39 40 41 42 43 44 45 46 47 48 49 50
975
ASUS43 KFGF 220931
RWRFGF
PRAIRIE TO PINES  WEATHER ROUNDUP
NATIONAL WEATHER SERVICE EASTERN NORTH DAKOTA/GRAND FORKS ND
400 AM CDT FRI MAY 22 2015

 **SATELLITE DATA USED TO AUGMENT SKY COVER AT AUTOMATED STATIONS**
 *****  WEATHER ACROSS EASTERN NORTH DAKOTA  *****

CITY           SKY/WX    TMP DP  RH WIND       PRES   REMARKS
GRAND FORKS    CLEAR     41  37  86 SW3       30.15R
GRAND FRKS AFB CLEAR     41  37  85 SW2       30.15R
GRAND FRKS NWS   N/A     39 N/A N/A W1          N/A
DEVILS LAKE    CLEAR     48  36  61 CALM      30.14F
FARGO          CLEAR     44  40  85 CALM      30.16R
WAHPETON ARPT  SUNNY     41  34  75 CALM      30.16S
$$

 ***** WEATHER ACROSS CENTRAL AND WESTERN NORTH DAKOTA  *****

CITY           SKY/WX    TMP DP  RH WIND       PRES   REMARKS
BISMARCK       CLEAR     47  41  80 NE7       30.15R
MINOT          CLEAR     52  34  50 S5        30.12F
JAMESTOWN      CLEAR     47  43  86 CALM      30.15S
MINOT AFB      CLEAR     46  40  81 S6        30.12S
GARRISON         N/A     44  36  73 CALM      30.14S
WILLISTON      CLEAR     42  36  79 CALM      30.11S
DICKINSON      CLEAR     40  31  70 S3        30.11S
HETTINGER      CLEAR     39  31  72 CALM      30.14F
$$

 *****  OTHER AIRPORT OBSERVATIONS IN OUR AREA  *****

CITY           SKY/WX    TMP DP  RH WIND       PRES   REMARKS
WALHALLA       FAIR      46  34  61 SW5       30.13S
GRAFTON AIRPOR FAIR      43  43 100 SW5       30.15
VALLEY CITY AR FAIR      41  39  93 CALM      30.16S
CANDO          FAIR      41  37  87 SW3       30.15S
CAVALIER APRT  FAIR      45  39  81 SW6       30.14R
GWINNER        NOT AVBL
SHEYENNE NWR     N/A     38  35  91 CALM      29.95S
ROLLA          FAIR      46  32  57 SW8       30.15S
 ***** THE ABOVE OBSERVATIONS ARE NON NWS ARE NOT QUALITY
       CONTROLLED AND MAY MIS-REPORT RAIN FOR SNOW...
$$

  *****  WEATHER ACROSS NORTHERN MINNESOTA  *****

CITY           SKY/WX    TMP DP  RH WIND       PRES   REMARKS
FLAG ISLAND    CLEAR     46  39  76 CALM      30.13R
WARROAD        CLEAR     37  34  87 CALM      30.15R
ROSEAU         CLEAR     39  36  87 CALM      30.15R
HALLOCK        CLEAR     41  37  87 SE6       30.14S
THF RVR FALLS  CLEAR     43  36  75 CALM      30.16S
BAUDETTE       CLEAR     37  35  92 CALM      30.14R
WASKISH        CLEAR     36  36 100 CALM      30.14R
CROOKSTON      CLEAR     45  34  65 CALM      30.16S
STEPHEN NDAWN    N/A     41  36  81 S3          N/A
GREENBUSH NDAW   N/A     41  37  87 SW3         N/A
$$
  *****  WEATHER ACROSS CENTRAL AND WEST MINNESOTA  *****

CITY           SKY/WX    TMP DP  RH WIND       PRES   REMARKS
FOSSTON        CLEAR     34  30  86 CALM      30.16R
BEMIDJI        CLEAR     36  33  90 CALM      30.15R
PARK RAPIDS    CLEAR     40  35  83 CALM      30.15R
ELBOW LAKE     FAIR      46  42  85 CALM      30.16R
WADENA         CLEAR     39  36  87 CALM      30.16R
DETROIT LAKES  FAIR      43  39  87 CALM      30.17R
MOORHEAD       CLEAR     45  39  81 CALM      30.17R
FERGUS FALLS   CLEAR     48  37  66 NE5       30.17R
MORRIS MN      CLEAR     45  39  81 CALM      30.15R
STAPLES        CLEAR     37  37 100 CALM      30.16S
$$
  *****  WEATHER ELSEWHERE ACROSS MINNESOTA  *****

CITY           SKY/WX    TMP DP  RH WIND       PRES   REMARKS
DULUTH         CLEAR     37  31  78 W3        30.14R
INTRNTL FALLS  CLEAR     31  29  92 CALM      30.13S
ELY            CLEAR     28  27  93 CALM      30.15R
CLOQUET        CLEAR     34  30  86 NW3       30.15R
WHEATON        CLEAR     45  37  76 SW5       30.18R
BRAINERD       CLEAR     37  36  96 CALM      30.16R
HIBBING        CLEAR     30  27  88 CALM      30.15R
ALEXANDRIA     CLEAR     44  39  82 CALM      30.16S
SAINT CLOUD    CLEAR     42  40  92 N3        30.15R
MINNEAPOLIS    CLEAR     52  36  54 CALM      30.14R
$$

  *****  WEATHER ACROSS SOUTH DAKOTA  *****

CITY           SKY/WX    TMP DP  RH WIND       PRES   REMARKS
SIOUX FALLS    CLEAR     45  41  86 CALM      30.17S
BROOKINGS      CLEAR     45  39  81 CALM      30.19S
WATERTOWN      CLEAR     44  37  76 CALM      30.17S
HURON          CLEAR     45  41  86 CALM      30.16S
SISSETON         N/A     43  38  82 CALM      30.16R
ABERDEEN       CLEAR     49  38  65 E5        30.15S
MITCHELL       CLEAR     49  40  71 CALM      30.17S
PIERRE         CLEAR     42  35  76 CALM      30.13F
MOBRIDGE       CLEAR     47  41  80 CALM      30.13R
RAPID CITY     CLOUDY    49  45  86 SE5       30.10S
$$

  *****  SOME WEATHER IN NEARBY STATES *****

CITY           SKY/WX    TMP DP  RH WIND       PRES   REMARKS
GLASGOW MT     CLEAR     46  33  60 E13       30.05F
GREAT FALLS MT CLEAR     47  41  80 CALM      29.95S
CHEYENNE WY    CLOUDY    43  42  97 SE17G23   30.05S FOG
SCOTTSBLUFF NE CLOUDY    51  44  77 SE10      30.09F
OMAHA NE       PTCLDY    58  40  51 CALM      30.19F
DES MOINES IA  CLEAR     53  42  66 W6        30.17R
DAVENPORT IA   CLEAR     46  39  76 W7        30.11R
CHICAGO IL     CLEAR     49  40  71 N9        30.08R
EAU CLAIRE WI  FOG       39  37  92 CALM      30.12R VSB 1
LA CROSSE WI   CLEAR     47  42  83 CALM      30.11R
$$

  *****  SOME NATIONAL WEATHER *****

CITY           SKY/WX    TMP DP  RH WIND       PRES   REMARKS
LA GUARDIA NY  CLOUDY    57  44  62 NW9       29.86R
RALEIGH NC     MOCLDY    56  48  74 VRB5      30.07R
ATLANTA GA     PTCLDY    53  46  77 NW10      30.09R
NEW ORLEANS LA CLOUDY    71  67  87 NE10      30.08R
OKLAHOMA CITY  MOCLDY    55  48  77 E9        30.16S
ALBUQUERQUE NM PTCLDY    49  42  77 E15       30.09F
SALT LAKE CITY MOCLDY    54  48  80 SE6       29.89S
LOS ANGELES CA MOCLDY    58  53  84 W13       29.98F
BOISE ID       PTCLDY    54  47  77 SE5       29.85F
SEATTLE WA     MOCLDY    54  50  86 S9        29.91S
$$

*** WEATHER ACROSS MANITOBA...SASKATCHEWAN AND ONTARIO ***
                ***ONTARIO***

CITY           SKY/WX    TMP DP  RH WIND       PRES   REMARKS
GERALDTON      CLEAR     23  18  80 CALM      30.15R
THUNDER BAY    CLEAR     28  28 100 NW3       30.18R
SIOUX LOOKOUT  CLEAR     27  25  93 CALM      30.14R
TORONTO        PTCLDY    45  34  65 NW14      29.93R
BIG TROUT LK   CLEAR     25  23  93 S5        30.14S WCI  19
PICKLE LAKE    NOT AVBL
DRYDEN         CLEAR     37  34  87 VRB2      30.13R
KENORA         CLEAR     46  27  46 S6        30.14R
$$
                *** MANITOBA***

CITY           SKY/WX    TMP DP  RH WIND       PRES   REMARKS
BRANDON        PTCLDY    41  36  81 W8        30.12R
DAUPHIN        MOCLDY    52  39  62 W9        30.07R
ISLAND LAKE    CLEAR     39  27  60 SE6       30.10F
PILOT MOUND      N/A     41  36  81 S7          N/A
THE PAS        PTCLDY    55  37  50 W9        29.95S
THOMPSON       PTCLDY    43  30  61 SE3       29.98F
WINNIPEG       PTCLDY    50  34  53 S12       30.12S
LYNN LAKE      PTCLDY    39  34  81 W8        29.91F
CHURCHILL      PTCLDY    37  27  65 SW15      29.94F
GILLAM         PTCLDY    37  25  60 S8        30.04F
$$
                ***SASKATCHEWAN***

CITY           SKY/WX    TMP DP  RH WIND       PRES   REMARKS
ESTEVAN        PTCLDY    46  37  71 E6        30.12S
KINDERSLEY     CLEAR     46  27  46 SE9       30.04S
LLOYDMINSTER   CLEAR     46  30  53 S9        30.01S
PRINCE ALBERT  PTCLDY    45  36  70 CALM      30.04S
REGINA         NOT AVBL
YORKTON        CLEAR     54  37  54 SW9       30.09S
N. BATTLEFORD  CLEAR     52  32  46 S5        30.06R
LA RONGE       PTCLDY    46  36  66 VRB2      29.98R
SASKATOON      CLEAR     50  34  53 SW7       30.08R
SWIFT CURRENT  CLEAR     46  30  53 S12       30.07S
$$
NOTE: THESE ARE AUTOMATED STATIONS WITH LIMITED QUALITY CONTROL
      "FAIR" INDICATES FEW OR NO CLOUDS BELOW 12,000 FEET WITH NO
      SIGNIFICANT WEATHER AND/OR OBSTRUCTIONS TO VISIBILITY.
      SKY/WX - SKY CONDITION AND SIGNIFICANT WEATHER.
      TMP - AIR TEMPERATURE.    DP   - DEWPOINT TEMPERATURE.
      RH  - RELATIVE HUMIDITY.  PRES - PRESSURE.
      HX  - HEAT INDEX.         WCI  - WIND CHILL INDEX.
$



USA.gov is the U.S. government's official web portal to all federal, state and local government web resources and services.